map of SUF home
SUF - Airport
Location
City:  Lamezia Terme, Calabria, Italy
Near (Alt.):Catanzaro
Name:Lamezia Terme Airport
ICAO:LICA
IATA:SUF

Details
Type:Airport (Aerodrome, Airfield)
Use:Public/Civil, International (customs port of entry)
Latitude:3854'19"N (38.905394)
Longitude:1614'32"E (16.242269)
Datum:WGS 1984
Elevation:39 ft (12 m)
Variation:3.74E (WMM2015v2 magnetic declination)
0.12 annual change
Runways:1
Longest:7920 × 148 ft (2414 × 45 m), paved

Time
Time Zone:UTC+1 (DST+2)
Local Time:

Weather
METAR:LICA 041350Z 13005G18KT 100V170 8000 -TSRA FEW020CB SCT030 BKN060 10/09 Q1009
TAF:LICA 041100Z 0412/0512 08012KT 9999 SCT030
TEMPO 0412/0503 4000 SHRA

Related Locations
Nearby:
Farthest:CHT: 11698 mi / 18826 km
Waitangi [Tuuta], CIT, NZ

Find:

   beyond  
but within

Other Information
Maps:
NOTAMs:
Links:
Sources:

  
  • flag of Italy
  • flag of Calabria
  

Sectional Chart

Flight Planning
at skyvector.com

Satellite Image

Google Maps Satellite view

 

Copyright © 2004-2019 Karl L. Swartz. All rights reserved.
The Great Circle Mapper name and logo are trademarks of the Great Circle Mapper.
All other trademarks mentioned herein belong to their respective owners.
Please see credits for attibutions and further copyright information.

  Follow gcmap on Facebook Follow gcmap on Twitter GCmap on LinkedIn

hCard Microformat

Geo Microformat